Weather History for CWDC - March, 2013

Change the Weather History Date:

Saturday, March 16, 2013

  Actual Average Record
Temperature  
Mean Temperature -22 °F -  
Max Temperature -6 °F - - ()
Min Temperature -39 °F - - ()
Degree Days  
Heating Degree Days 88    
Moisture  
Dew Point -31 °F    
Average Humidity 58    
Maximum Humidity 73    
Minimum Humidity 28    
Precipitation  
Precipitation 0.12 in - - ()
Sea Level Pressure  
Sea Level Pressure 30.40 in    
Wind  
Wind Speed 3 mph ()    
Max Wind Speed 8 mph    
Max Gust Speed -    
T = Trace of Precipitation, MM = Missing Value Source: Averaged Metar Reports

Daily Weather History Graph

Daily Weather History Graph

Search for Another Location

Airport or City:

Trip Planner

Search our weather history database for the weather conditions in past years. The results will help you decide how hot, cold, wet, or windy it might be!

Date:

Astronomy

Mar. 16, 2013 Rise Set
Actual Time 7:26 AM CST 7:19 PM CST
Civil Twilight 6:45 AM CST 8:00 PM CST
Nautical Twilight 5:57 AM CST 8:49 PM CST
Astronomical Twilight 5:05 AM CST 9:41 PM CST
Moon 8:42 AM CST (3/16) 12:47 AM CST (3/16)
Length of Visible Light 13h 15m
Length of Day
11h 53m
Waxing Crescent, 23% of the Moon is Illuminated
Mar 16
Waxing Crescent
Mar 19
First Quarter
Mar 27
Full
Apr 2
Last Quarter
Apr 10
New

Hourly Weather History & Observations

Time (CST) Temp. Windchill Dew Point Humidity Pressure Visibility Wind Dir Wind Speed Gust Speed Precip Events Conditions
12:00 AM -22 °F - -30 °F 52% 30.51 in - NNE 1.2 mph - -  
12:00 AM -21.8 °F - -29.6 °F 67% 30.51 in - NNE 1.2 mph - N/A   Unknown
1:00 AM -26.5 °F - -32.8 °F 72% 30.51 in - NNE 2.3 mph - N/A   Unknown
2:00 AM -27.4 °F - -33.7 °F 72% 30.52 in - West 2.3 mph - N/A   Unknown
3:00 AM -27 °F - -33 °F 59% 30.52 in - NW 2.3 mph - -  
3:00 AM -26.9 °F - -32.8 °F 73% 30.52 in - NW 2.3 mph - N/A   Unknown
4:00 AM -34.4 °F - -41.3 °F 69% 30.52 in - ENE 2.3 mph - N/A   Unknown
6:00 AM -37 °F - -44 °F 49% 30.51 in - ENE 4.6 mph - -  
6:00 AM -37.3 °F -53.4 °F -44.1 °F 69% 30.51 in - ENE 4.6 mph - N/A   Unknown
7:00 AM -38.2 °F - -45.8 °F 66% 30.51 in - East 1.2 mph - N/A   Unknown
8:00 AM -38.7 °F - -46.1 °F 66% 30.49 in - East 2.3 mph - N/A   Unknown
9:00 AM -32 °F - -38 °F 58% 30.47 in - ENE 2.3 mph - -  
9:00 AM -31.5 °F - -37.8 °F 71% 30.47 in - ENE 2.3 mph - N/A   Unknown
10:00 AM -18.6 °F - -26.3 °F 68% 30.45 in - East 1.2 mph - N/A   Unknown
11:00 AM -13.0 °F -22.7 °F -25.2 °F 54% 30.44 in - SW 3.5 mph - N/A   Unknown
12:00 PM -10 °F - -24 °F 33% 30.43 in - West 6.9 mph - -  
12:00 PM -9.9 °F -24.9 °F -23.6 °F 51% 30.43 in - West 6.9 mph - N/A   Unknown
1:00 PM -8.5 °F -24.5 °F -22.7 °F 50% 30.40 in - West 8.1 mph - N/A   Unknown
2:00 PM -7.8 °F -23.6 °F -23.1 °F 47% 30.38 in - West 8.1 mph - N/A   Unknown
3:00 PM -6 °F - -22 °F 28% 30.35 in - WSW 6.9 mph - -  
3:00 PM -6.3 °F -20.6 °F -21.8 °F 47% 30.35 in - WSW 6.9 mph - N/A   Unknown
4:00 PM -7.6 °F -22.1 °F -22.9 °F 47% 30.32 in - WSW 6.9 mph - N/A   Unknown
5:00 PM -7.6 °F -23.4 °F -23.1 °F 47% 30.30 in - West 8.1 mph - N/A   Unknown
6:00 PM -8 °F - -22 °F 32% 30.28 in - SW 3.5 mph - -  
6:00 PM -7.6 °F -16.5 °F -22.0 °F 50% 30.28 in - SW 3.5 mph - N/A   Unknown
7:00 PM -11.2 °F -20.6 °F -22.7 °F 57% 30.26 in - SW 3.5 mph - N/A   Unknown
8:00 PM -17.7 °F -28.0 °F -26.1 °F 65% 30.25 in - West 3.5 mph - N/A   Unknown
9:00 PM -23 °F - -29 °F 60% 30.22 in - ENE 1.2 mph - -  
9:00 PM -22.7 °F - -28.8 °F 73% 30.22 in - ENE 1.2 mph - N/A   Unknown
10:00 PM -27.4 °F - -34.4 °F 69% 30.21 in - ENE 2.3 mph - N/A   Unknown
11:00 PM -30.5 °F -42.6 °F -37.7 °F 68% 30.18 in - ENE 3.5 mph - N/A   Unknown